FW8870 Weather Reports


Display with metric or nautical units.
time (UTC)temp
F
wind
direction
speed
MPH
gust
MPH
rain 1hr
in
rain 24hr
in
rain mn
in
humidity
%
barometer
mb
20260505000038 80 323 1.0 2.0 0.00 0.00 0.00 44 1009.9
20260504235534 81 312 0.0 0.0 0.00 0.00 0.00 45 1009.9
20260504235031 80 249 0.0 0.0 0.00 0.00 0.00 45 1010.0
20260504234528 81 282 2.0 3.0 0.00 0.00 0.00 43 1010.2
20260504234025 80 302 0.0 0.0 0.00 0.00 0.00 51 1009.9
20260504233520 80 88 0.0 0.0 0.00 0.00 0.00 53 1010.0
20260504233018 80 342 0.0 0.0 0.00 0.00 0.00 46 1010.0
20260504232515 80 320 0.0 0.0 0.00 0.00 0.00 45 1010.1
20260504232012 80 357 0.0 0.0 0.00 0.00 0.00 47 1010.3
20260504231509 80 345 1.0 2.0 0.00 0.00 0.00 48 1010.0
20260504231005 81 350 3.0 6.0 0.00 0.00 0.00 44 1010.1
20260504230501 81 323 0.0 0.0 0.00 0.00 0.00 49 1010.1
20260504230000 82 327 0.0 0.0 0.00 0.00 0.00 45 1010.2
20260504225456 82 304 0.0 0.0 0.00 0.00 0.00 47 1010.3
20260504224954 81 318 0.0 0.0 0.00 0.00 0.00 46 1010.4
20260504224450 81 326 0.0 0.0 0.00 0.00 0.00 48 1010.5
20260504223947 82 305 0.0 0.0 0.00 0.00 0.00 49 1010.4
20260504223444 81 308 0.0 0.0 0.00 0.00 0.00 49 1010.5
20260504222939 81 225 0.0 0.0 0.00 0.00 0.00 48 1010.6
20260504222437 82 326 0.0 0.0 0.00 0.00 0.00 52 1010.4
20260504221935 82 263 0.0 0.0 0.00 0.00 0.00 48 1010.6
20260504221431 81 212 0.0 0.0 0.00 0.00 0.00 51 1010.7
20260504220928 81 341 0.0 0.0 0.00 0.00 0.00 49 1010.6
20260504220425 81 306 0.0 0.0 0.00 0.00 0.00 49 1010.8
20260504215922 81 310 0.0 0.0 0.00 0.00 0.00 48 1010.6
20260504215419 81 159 0.0 0.0 0.00 0.00 0.00 55 1010.7
20260504214915 80 299 0.0 0.0 0.00 0.00 0.00 49 1010.7
20260504214412 80 356 5.0 9.0 0.00 0.00 0.00 49 1010.7
20260504213909 81 324 0.0 0.0 0.00 0.00 0.00 50 1010.7
20260504213404 81 335 0.0 0.0 0.00 0.00 0.00 53 1010.7
20260504212902 81 338 0.0 0.0 0.00 0.00 0.00 58 1010.8
20260504212358 80 297 0.0 1.0 0.00 0.00 0.00 51 1010.8
20260504211856 81 303 0.0 0.0 0.00 0.00 0.00 62 1010.7
20260504211352 80 347 0.0 0.0 0.00 0.00 0.00 59 1011.0
20260504210849 80 2 0.0 0.0 0.00 0.00 0.00 51 1010.8
20260504210346 81 4 0.0 0.0 0.00 0.00 0.00 51 1011.0
20260504205843 80 257 0.0 0.0 0.00 0.00 0.00 54 1010.8
20260504205341 80 357 2.0 5.0 0.00 0.00 0.00 50 1011.2
20260504204839 80 327 0.0 0.0 0.00 0.00 0.00 52 1011.2
20260504204337 80 338 0.0 0.0 0.00 0.00 0.00 50 1011.2
20260504203836 81 298 0.0 0.0 0.00 0.00 0.00 50 1011.1
20260504203333 80 46 0.0 0.0 0.00 0.00 0.00 56 1011.1
20260504202828 80 295 0.0 0.0 0.00 0.00 0.00 53 1011.2
20260504202326 80 355 0.0 0.0 0.00 0.00 0.00 50 1011.3
20260504201822 80 315 0.0 0.0 0.00 0.00 0.00 51 1011.4
20260504201320 80 326 0.0 0.0 0.00 0.00 0.00 55 1011.3
20260504200817 80 21 0.0 0.0 0.00 0.00 0.00 54 1011.5
20260504200313 79 309 0.0 0.0 0.00 0.00 0.00 49 1011.4
20260504195810 79 314 0.0 0.0 0.00 0.00 0.00 51 1011.6
20260504195305 79 326 0.0 0.0 0.00 0.00 0.00 50 1011.4
20260504194802 79 273 0.0 0.0 0.00 0.00 0.00 56 1011.4
20260504194259 78 252 0.0 0.0 0.00 0.00 0.00 49 1011.4
20260504193755 78 348 0.0 1.0 0.00 0.00 0.00 46 1011.6
20260504193253 78 331 0.0 0.0 0.00 0.00 0.00 48 1011.7
20260504192751 78 260 0.0 0.0 0.00 0.00 0.00 54 1011.4
20260504192249 78 7 0.0 0.0 0.00 0.00 0.00 51 1011.7
20260504191747 78 304 0.0 1.0 0.00 0.00 0.00 48 1011.6
20260504191243 77 275 0.0 0.0 0.00 0.00 0.00 52 1011.6
20260504190739 77 290 0.0 0.0 0.00 0.00 0.00 52 1011.7
20260504190236 76 343 0.0 1.0 0.00 0.00 0.00 48 1011.6
20260504185732 77 341 0.0 0.0 0.00 0.00 0.00 50 1011.6
20260504185229 76 328 0.0 0.0 0.00 0.00 0.00 57 1011.6
20260504184725 76 29 0.0 0.0 0.00 0.00 0.00 56 1011.8
20260504184221 76 327 0.0 0.0 0.00 0.00 0.00 55 1011.7
20260504183717 75 349 1.0 3.0 0.00 0.00 0.00 57 1011.8
20260504183214 75 4 2.0 3.0 0.00 0.00 0.00 50 1011.8
20260504182713 75 79 0.0 0.0 0.00 0.00 0.00 53 1011.9
20260504182209 74 317 1.0 2.0 0.00 0.00 0.00 52 1011.8
20260504181707 73 330 0.0 0.0 0.00 0.00 0.00 57 1012.0
20260504181204 74 349 0.0 0.0 0.00 0.00 0.00 56 1012.0
20260504180703 74 14 3.0 5.0 0.00 0.00 0.00 54 1012.0
20260504180201 73 321 0.0 0.0 0.00 0.00 0.00 56 1011.9
20260504175658 72 118 0.0 0.0 0.00 0.00 0.00 56 1012.3
20260504175155 73 319 0.0 0.0 0.00 0.00 0.00 58 1012.0
20260504174653 73 273 0.0 0.0 0.00 0.00 0.00 62 1012.1
20260504174150 72 325 0.0 0.0 0.00 0.00 0.00 58 1012.2
20260504173647 73 6 1.0 1.0 0.00 0.00 0.00 55 1012.3
20260504173144 73 328 0.0 0.0 0.00 0.00 0.00 53 1012.0
20260504172641 71 328 0.0 0.0 0.00 0.00 0.00 57 1012.4
20260504172137 71 333 0.0 0.0 0.00 0.00 0.00 60 1012.3
20260504171633 71 339 0.0 0.0 0.00 0.00 0.00 60 1012.3
20260504171131 71 323 0.0 0.0 0.00 0.00 0.00 63 1012.2
20260504170627 71 343 0.0 0.0 0.00 0.00 0.00 64 1012.3
20260504170125 71 329 0.0 0.0 0.00 0.00 0.00 59 1012.5
20260504151010 56 347 0.0 0.0 0.00 0.00 0.00 84 1013.1
20260504150508 55 344 0.0 0.0 0.00 0.00 0.00 87 1012.7
20260504140933 50 334 0.0 0.0 0.00 0.00 0.00 94 1012.5
20260504140430 50 312 0.0 0.0 0.00 0.00 0.00 94 1012.4
20260504130355 49 324 0.0 0.0 0.00 0.00 0.00 94 1011.9
20260504120318 50 345 0.0 0.0 0.00 0.00 0.00 94 1011.8
20260504110242 50 328 0.0 0.0 0.00 0.00 0.00 92 1012.0
20260504100205 55 337 0.0 0.0 0.00 0.00 0.00 80 1011.7
20260504090128 53 336 0.0 0.0 0.00 0.00 0.00 87 1011.6
20260504081558 55 342 0.0 0.0 0.00 0.00 0.00 82 1011.5
20260504081054 56 327 0.0 0.0 0.00 0.00 0.00 81 1011.6
20260504080551 56 327 0.0 0.0 0.00 0.00 0.00 80 1011.4
20260504050404 57 317 0.0 0.0 0.00 0.00 0.00 87 1011.3
20260504045900 57 317 0.0 0.0 0.00 0.00 0.00 88 1011.4
20260504045356 56 316 0.0 0.0 0.00 0.00 0.00 88 1011.4
20260504044853 57 316 0.0 0.0 0.00 0.00 0.00 90 1011.3
20260504044350 57 316 0.0 0.0 0.00 0.00 0.00 89 1011.4
20260504043848 57 305 0.0 0.0 0.00 0.00 0.00 88 1011.3
20260504043344 57 322 0.0 0.0 0.00 0.00 0.00 89 1011.6
20260504042842 58 322 0.0 0.0 0.00 0.00 0.00 89 1011.4
20260504042338 59 322 0.0 0.0 0.00 0.00 0.00 89 1011.3
20260504041834 59 322 0.0 0.0 0.00 0.00 0.00 88 1011.4
20260504041331 59 322 0.0 0.0 0.00 0.00 0.00 89 1011.5
20260504040827 59 322 0.0 0.0 0.00 0.00 0.00 88 1011.2
20260504040325 60 322 0.0 0.0 0.00 0.00 0.00 86 1011.3
20260504035820 60 321 0.0 0.0 0.00 0.00 0.00 84 1011.1
20260504035318 61 322 0.0 0.0 0.00 0.00 0.00 81 1011.2
20260504034815 61 322 0.0 0.0 0.00 0.00 0.00 81 1011.2
20260504034313 62 322 0.0 0.0 0.00 0.00 0.00 80 1011.3
20260504033809 63 322 0.0 0.0 0.00 0.00 0.00 77 1011.2
20260504033307 64 322 0.0 0.0 0.00 0.00 0.00 76 1011.0
20260504032803 65 322 0.0 0.0 0.00 0.00 0.00 73 1011.0
20260504032301 66 322 0.0 0.0 0.00 0.00 0.00 71 1010.8
20260504031757 67 321 0.0 0.0 0.00 0.00 0.00 68 1010.7
20260504031255 68 321 0.0 0.0 0.00 0.00 0.00 66 1010.8
20260504030751 68 321 0.0 0.0 0.00 0.00 0.00 65 1011.0
20260504030248 69 317 0.0 0.0 0.00 0.00 0.00 65 1010.7
20260504025744 69 324 0.0 0.0 0.00 0.00 0.00 66 1010.7
20260504025241 69 325 0.0 0.0 0.00 0.00 0.00 65 1011.1
20260504024738 70 318 0.0 0.0 0.00 0.00 0.00 63 1010.7
20260504024235 70 312 0.0 0.0 0.00 0.00 0.00 63 1011.0
20260504023732 71 332 0.0 0.0 0.00 0.00 0.00 62 1010.6
20260504023228 71 314 0.0 0.0 0.00 0.00 0.00 62 1010.7
20260504022724 71 319 0.0 0.0 0.00 0.00 0.00 63 1010.7
20260504022220 71 330 0.0 0.0 0.00 0.00 0.00 59 1011.0
20260504021718 72 333 0.0 0.0 0.00 0.00 0.00 60 1011.0
20260504021215 72 333 0.0 0.0 0.00 0.00 0.00 60 1011.2
20260504020712 72 328 0.0 0.0 0.00 0.00 0.00 60 1011.0
20260504020208 73 327 0.0 0.0 0.00 0.00 0.00 56 1011.0
20260504015704 73 316 0.0 0.0 0.00 0.00 0.00 53 1011.1
20260504015201 73 318 0.0 0.0 0.00 0.00 0.00 55 1011.2
20260504014656 73 304 0.0 0.0 0.00 0.00 0.00 56 1011.1
20260504014154 74 315 0.0 0.0 0.00 0.00 0.00 59 1011.3
20260504013651 76 316 0.0 0.0 0.00 0.00 0.00 53 1011.2
20260504013148 77 305 0.0 0.0 0.00 0.00 0.00 53 1011.0
20260504012645 78 283 0.0 0.0 0.00 0.00 0.00 53 1011.2
20260504012143 78 345 0.0 0.0 0.00 0.00 0.00 45 1011.4
20260504011639 78 293 0.0 0.0 0.00 0.00 0.00 53 1011.2
20260504011136 78 302 0.0 0.0 0.00 0.00 0.00 51 1011.2
20260504010632 79 301 0.0 0.0 0.00 0.00 0.00 53 1011.6
20260504010128 78 320 0.0 0.0 0.00 0.00 0.00 46 1011.5
20260504005625 78 319 0.0 0.0 0.00 0.00 0.00 48 1011.5
20260504005122 78 314 0.0 0.0 0.00 0.00 0.00 50 1011.5
20260504004620 78 4 0.0 0.0 0.00 0.00 0.00 53 1011.7
20260504004117 78 334 0.0 0.0 0.00 0.00 0.00 46 1011.7
20260504003613 79 311 0.0 0.0 0.00 0.00 0.00 54 1011.6
20260504003110 80 307 0.0 0.0 0.00 0.00 0.00 50 1011.6
20260504002607 81 314 0.0 0.0 0.00 0.00 0.00 47 1011.6
20260504002104 81 338 0.0 0.0 0.00 0.00 0.00 44 1011.8
20260504001602 82 252 0.0 0.0 0.00 0.00 0.00 44 1011.9
20260504001057 82 290 0.0 0.0 0.00 0.00 0.00 53 1011.8
20260504000555 82 305 0.0 0.0 0.00 0.00 0.00 49 1012.0